SCP
0 0 0 0 0 0 0 0 0 0 0 0 0 0 0 0 0 0 0 0 0 0 0 0 0 0 0 0 0 0 0 0 0 0 0 0 0 0
0 0 0 0 0 0 0 0 0 0 0 0 0 0 0 0 0 0 0 0 0 0 0 0 0 0 0 0 0 0 0 0 0 0 0 0 0 0
0 0 0 0 0 0 0 0 0 0 0 0 0 0 0 0 0 0 0 0 0 0 0 0 0 0 0 0 0 0 0 0 0 0 0 0 0 0
0 0 0 0 0 0 0 0 0 0 0 0 0 0 0 0 0 0 0 0 0 0 0 0 0 0 0 0 0 0 0 0 0 0 0 0 0 0
0 0 0 0 0 0 0 0 0 0 0 0 0 0 0 0 0 0 0 0 0 0 0 0 0 0 0 0 0 0 0 0 0 0 0 0 0 0
0 0 0 0 0 0 0 0 0 0 0 0 0 0 0 0 0 0 0 0 0 0 0 0 0 0 0 0 0 0 0 0 0 0 0 0 0 0
0 0 0 0 0 0 0 0 0 0 0 0 0 0 0 0 0 0 0 0 0 0 0 0 0 0 0 0 0 0 0 0 0 0 0 0 0 0
0 0 0 0 0 0 0 0 0 0 0 0 0 0 0 0 0 0 0 0 0 0 0 0 0 0 0 0 0 0 0 0 0 0 0 0 0 0
0 0 0 0 0 0 0 0 0 0 0 0 0 0 0 0 0 0 0 0 0 0 0 0 0 0 0 0 0 0 0 0 0 0 0 0 0 0
0 0 0 0 0 0 0 0 0 0 0 0 0 0 0 0 0 0 0 0 0 0 0 0 0 0 0 0 0 0 0 0 0 0 0 0 0 0
0 0 0 0 0 0 0 0 0 0 0 0 0 0 0 0 0 0 0 0 0 0 0 0 0 0 0 0 0 0 0 0 0 0 0 0 0 0
0 0 0 0 0 0 0 0 0 0 0 0 0 0 0 0 0 0 0 0 0 0 0 0 0 0 0 0 0 0 0 0 0 0 0 0 0 0
0 0 0 0 0 0 0 0 0 0 0 0 0 0 0 0 0 0 0 0 0 0 0 0 0 0 0 0 0 0 0 0 0 0 0 0 0 0
0 0 0 0 0 0 0 0 0 0 0 0 0 0 0 0 0 0 0 0 0 0 0 0 0 0 0 0 0 0 0 0 0 0 0 0 0 0
0 0 0 0 0 0 0 0 0 0 0 0 0 0 0 0 0 0 0 0 0 0 0 0 0 0 0 0 0 0 0 0 0 0 0 0 0 0
0 0 0 0 0 0 0 0 0 0 0 0 0 0 0 0 0 0 0 0 0 0 0 0 0 0 0 0 0 0 0 0 0 0 0 0 0 0
0 0 0 0 0 0 0 0 0 0 0 0 0 0 0 0 0 0 0 0 0 0 0 0 0 0 0 0 0 0 0 0 0 0 0 0 0 0
0 0 0 0 0 0 0 0 0 0 0 0 0 0 0 0 0 0 0 0 0 0 0 0 0 0 0 0 0 0 0 0 0 0 0 0 0 0
0 0 0 0 0 0 0 0 0 0 0 0 0 0 0 0 0 0 0 0 0 0 0 0 0 0 0 0 0 0 0 0 0 0 0 0 0 0
0 0 0 0 0 0 0 0 0 0 0 0 0 0 0 0 0 0 0 0 0 0 0 0 0 0 0 0 0 0 0 0 0 0 0 0 0 0
0 0 0 0 0 0 0 0 0 0 0 0 0 0 0 0 0 0 0 0 0 0 0 0 0 0 0 0 0 0 0 0 0 0 0 0 0 0
0 0 0 0 0 0 0 0 0 0 0 0 0 0 0 0 0 0 0 0 0 0 0 0 0 0 0 0 0 0 0 0 0 0 0 0 0 0
0 0 0 0 0 0 0 0 0 0 0 0 0 0 0 0 0 0 0 0 0 0 0 0 0 0 0 0 0 0 0 0 0 0 0 0 0 0
Wind_Speed
5 5 4 3 3 3 4 5 6 5 3 2 2 2 2 2 2 2 1 1 1 1 1 2 2 2 2 2 2 2 3 4 5 5 6 7 8 9
5 6 6 4 4 3 4 3 3 5 4 2 2 2 2 3 3 2 1 0 1 1 2 3 3 3 2 2 1 1 2 2 4 5 5 6 7 8
6 7 7 5 5 4 4 4 3 4 6 3 2 2 3 3 2 2 1 0 1 2 2 3 3 4 3 3 2 1 1 2 3 4 4 5 6 7
7 7 7 6 7 5 5 5 4 4 6 7 3 3 3 2 2 1 1 1 1 1 1 2 3 3 3 3 3 2 2 2 2 3 4 4 5 6
7 8 7 7 7 5 6 6 5 5 5 6 4 2 3 2 2 2 2 2 2 2 1 0 1 2 3 3 4 4 3 3 3 3 4 4 5 6
8 8 7 7 7 6 6 6 6 7 7 6 5 3 3 2 2 2 2 2 2 2 3 2 2 1 2 3 4 5 4 5 5 5 5 5 5 5
9 8 8 10 10 7 6 6 6 6 6 5 4 3 2 2 1 1 1 1 1 2 2 2 2 1 2 2 4 5 5 5 5 5 5 5 5 5
8 8 8 10 11 12 11 9 7 6 5 4 3 3 2 1 1 1 1 1 1 1 2 2 1 2 2 2 3 5 5 5 5 5 5 5 5 5
7 7 7 8 9 8 10 11 10 8 6 4 4 2 2 2 2 1 1 0 1 1 1 2 1 2 2 3 4 4 5 5 5 5 5 5 5 5
7 6 7 7 7 7 7 8 7 6 4 3 2 2 2 2 2 1 1 1 2 1 1 1 1 2 3 3 4 4 4 5 5 5 6 5 5 5
6 6 6 6 8 8 7 6 6 5 5 4 2 1 2 3 4 2 1 1 1 1 1 2 1 2 3 3 3 4 4 5 5 6 6 6 5 5
5 5 7 7 7 7 5 5 5 3 4 3 4 3 2 1 4 3 2 1 1 1 1 2 1 2 3 2 3 3 3 4 5 5 5 5 5 3
3 3 3 6 6 6 4 3 1 1 2 2 2 2 2 2 1 2 3 3 2 2 2 2 1 1 2 3 3 2 2 2 3 3 3 4 4 4
2 1 2 4 5 5 3 3 3 2 2 2 2 2 2 2 2 2 3 4 5 5 3 3 2 2 2 3 3 3 3 2 2 3 3 3 3 4
1 2 3 4 5 4 5 5 3 2 2 2 2 2 2 3 3 2 1 2 4 5 5 5 5 3 3 3 3 3 3 3 2 2 3 3 3 2
3 4 5 7 5 4 4 4 3 2 2 1 1 2 2 2 2 2 2 2 2 2 1 3 4 5 3 4 4 4 3 3 3 3 3 4 3 3
2 2 3 3 4 3 3 3 3 3 2 1 2 2 2 2 2 2 2 2 2 2 3 2 1 4 6 4 4 5 4 4 3 3 3 3 4 3
2 2 2 2 2 2 3 3 2 2 2 2 2 2 2 2 2 2 2 2 2 2 3 3 3 2 2 4 7 5 4 3 3 3 3 3 5 3
2 1 1 1 1 1 1 2 2 2 2 1 1 2 2 2 2 2 3 2 2 3 2 2 2 2 3 4 3 5 4 4 3 3 3 3 5 5
1 0 1 1 1 1 1 1 1 2 1 1 2 2 2 2 2 3 3 3 3 3 3 2 2 2 3 3 4 4 5 5 3 3 3 3 5 6
1 1 1 1 1 1 1 1 1 1 1 1 2 2 2 2 2 3 3 3 3 3 4 4 3 4 3 3 4 4 3 4 6 4 3 3 3 3
1 1 1 1 1 1 1 0 0 1 1 1 2 2 2 2 3 4 3 3 3 3 4 4 4 2 1 2 3 4 4 4 3 7 9 6 3 3
2 2 1 1 1 1 1 1 1 1 1 1 2 2 3 2 3 3 3 3 3 4 3 4 3 2 1 2 2 3 4 5 4 3 2 4 10 13
Wind_Direction
80 84 84 79 89 93 115 132 135 138 134 151 150 143 127 117 118 104 102 101 117 140 166 175 161 146 125 96 76 60 46 32 19 12 9 7 5 4
67 73 71 72 79 87 106 101 107 127 131 141 140 123 117 117 122 115 135 272 275 249 222 207 202 198 190 180 165 55 30 15 4 0 358 358 358 358
66 73 70 68 78 79 85 90 91 107 118 107 85 90 92 92 75 69 84 7 294 276 245 220 210 206 205 207 212 245 318 341 344 343 343 345 347 349
62 68 67 73 71 72 82 87 89 92 121 119 95 75 72 77 77 67 46 35 322 300 265 218 202 204 209 217 221 231 254 287 304 312 320 325 329 335
62 66 65 74 73 73 81 88 89 91 97 112 103 78 69 60 66 50 38 11 356 14 16 345 250 229 226 234 233 235 245 258 267 274 284 296 307 318
63 64 64 70 75 78 81 86 95 95 97 102 101 84 69 52 72 57 32 11 1 8 10 10 0 289 260 260 252 246 247 253 259 263 268 278 293 305
62 58 61 68 69 72 84 88 96 99 102 103 99 92 81 76 76 43 40 348 354 6 339 352 347 325 303 287 269 257 254 254 258 264 268 274 282 291
66 57 58 56 61 66 76 81 91 107 112 108 110 121 130 132 114 81 63 26 341 7 340 324 341 303 296 285 277 271 264 264 263 266 268 272 278 285
63 60 60 53 56 65 67 66 65 75 99 124 128 144 157 172 155 136 148 200 262 324 329 302 318 295 294 293 294 279 272 270 268 267 268 269 271 274
60 64 66 53 54 69 73 66 58 52 60 89 132 165 189 186 182 163 156 266 283 265 238 280 306 295 303 300 296 291 286 279 273 269 267 265 266 272
53 55 63 61 54 68 74 70 56 37 43 59 108 164 207 200 171 150 140 56 345 313 208 261 297 303 295 291 296 303 299 290 281 274 271 271 271 272
48 43 50 57 56 64 72 72 57 22 14 31 41 40 49 110 175 187 180 178 250 280 209 227 276 307 302 288 294 305 303 290 289 282 278 278 274 267
55 32 23 34 48 62 76 75 59 32 34 40 41 34 38 50 88 201 208 207 218 247 222 203 249 250 273 296 300 299 304 302 305 291 284 287 276 249
57 9 352 18 42 59 69 67 71 74 63 52 46 27 12 3 343 312 246 229 236 250 239 204 244 232 251 280 289 301 300 289 286 294 306 306 283 248
36 15 31 49 63 58 53 56 63 64 61 51 32 360 330 315 314 321 326 275 252 247 236 217 221 227 230 254 275 286 301 299 284 292 300 300 292 282
34 37 50 56 57 50 44 42 43 50 63 48 2 331 325 336 355 356 351 348 340 327 291 225 222 216 233 239 248 267 267 279 294 296 296 287 270 252
26 38 37 35 35 28 26 29 30 38 47 30 12 4 1 0 360 352 348 342 335 321 321 327 249 237 239 245 258 261 268 271 268 284 293 295 284 265
80 58 42 36 33 19 10 7 14 18 15 12 17 9 357 353 353 356 349 334 319 308 306 313 326 321 282 236 222 258 274 270 280 268 258 280 287 280
79 66 40 13 1 352 351 348 349 353 348 358 10 1 349 348 355 354 351 337 320 310 304 303 305 314 316 314 297 213 240 284 291 282 256 247 268 286
60 14 308 305 299 306 319 329 338 352 1 1 2 356 351 346 348 346 343 331 319 311 309 303 280 271 267 291 300 296 232 246 273 285 289 271 267 276
312 277 274 282 281 284 293 309 323 344 357 354 353 350 345 339 336 333 328 322 314 309 309 310 312 292 259 256 273 285 287 235 235 255 284 294 304 312
267 263 273 272 269 275 271 265 301 329 343 342 337 335 335 329 326 325 326 326 316 304 295 299 315 305 231 265 294 307 314 323 277 240 239 243 280 309
253 250 254 259 250 243 238 248 264 284 294 303 313 319 323 321 315 311 313 317 312 314 315 317 326 324 308 295 302 309 317 326 332 329 311 253 244 257